Latest Coastal Weather Observations for Spring Bay

IDT60701

Issued at 3:12 pm EST Sunday 28 August 2016 (issued every 10 minutes, with the page automatically refreshed every 10 minutes)

About coastal observations | Map of coastal stations | Coastal observations for TAS | Marine services | Other Formats
Station Details ID: 092133 Name: SPRING BAY NTC AWS Lat: -42.55 Lon: 147.93 Height: 0.0 m
Data from the previous 72 hours. | See also: Recent months for locations in Tasmania
Date/Time
EST
Temp
°C
Wind Pressure Rain since
9am
mm
Weather Cloud Vis
km
Sea
Height
m
Swell
Dir  Spd
kts
Gust
kts
hPa Trend Height
m
Period
s
Dir
28/03:00pm 10.9 - - - 1016.1 - - - - - - - - -
28/02:30pm 10.9 - - - 1016.1 - - - - - - - - -
28/02:00pm 10.5 - - - 1016.1 - - - - - - - - -
28/01:30pm 10.6 - - - 1016.2 - - - - - - - - -
28/01:00pm 10.5 - - - 1016.3 - - - - - - - - -
28/12:30pm 10.0 - - - 1016.6 - - - - - - - - -
28/12:00pm 9.7 - - - 1016.6 - - - - - - - - -
28/11:30am 9.8 - - - 1016.7 - - - - - - - - -
28/11:00am 9.5 - - - 1016.7 - - - - - - - - -
28/10:30am 9.3 - - - 1016.5 - - - - - - - - -
28/10:00am 9.1 - - - 1016.3 - - - - - - - - -
28/09:30am 9.1 - - - 1015.8 - - - - - - - - -
28/09:00am 8.7 - - - 1015.8 - - - - - - - - -
28/08:30am 8.3 - - - 1015.5 - - - - - - - - -
28/08:00am 7.6 - - - 1015.0 - - - - - - - - -
28/07:30am 7.3 - - - 1014.6 - - - - - - - - -
28/07:00am 7.2 - - - 1013.9 - - - - - - - - -
28/06:30am 7.8 - - - 1013.0 - - - - - - - - -
28/06:00am 8.0 - - - 1012.5 - - - - - - - - -
28/05:30am 8.3 - - - 1011.7 - - - - - - - - -
28/05:00am 8.2 - - - 1011.0 - - - - - - - - -
28/04:30am 8.3 - - - 1010.3 - - - - - - - - -
28/04:00am 8.4 - - - 1009.9 - - - - - - - - -
28/03:30am 8.4 - - - 1009.3 - - - - - - - - -
28/03:00am 9.0 - - - 1008.8 - - - - - - - - -
28/02:30am 9.8 - - - 1007.9 - - - - - - - - -
28/02:00am 10.7 - - - 1006.9 - - - - - - - - -
28/01:30am 11.2 - - - 1006.3 - - - - - - - - -
28/01:00am 11.7 - - - 1005.8 - - - - - - - - -
28/12:30am 11.7 - - - 1005.4 - - - - - - - - -
28/12:00am 12.0 - - - 1004.8 - - - - - - - - -
 
Date/Time
EST
Temp
°C
Wind Pressure Rain since
9am
mm
Weather Cloud Vis
km
Sea
Height
m
Swell
Dir  Spd
kts
Gust
kts
hPa Trend Height
m
Period
s
Dir
27/11:30pm 12.1 - - - 1004.7 - - - - - - - - -
27/11:00pm 11.9 - - - 1005.1 - - - - - - - - -
27/10:30pm 11.8 - - - 1005.5 - - - - - - - - -
27/10:00pm 11.5 - - - 1005.7 - - - - - - - - -
27/09:30pm 11.4 - - - 1006.1 - - - - - - - - -
27/09:00pm 11.4 - - - 1006.4 - - - - - - - - -
27/08:30pm 11.5 - - - 1007.3 - - - - - - - - -
27/08:00pm 11.7 - - - 1007.5 - - - - - - - - -
27/07:30pm 12.2 - - - 1008.0 - - - - - - - - -
27/07:00pm 12.4 - - - 1007.9 - - - - - - - - -
27/06:30pm 12.6 - - - 1008.1 - - - - - - - - -
27/06:00pm 12.8 - - - 1007.8 - - - - - - - - -
27/05:30pm 13.6 - - - 1007.8 - - - - - - - - -
27/05:00pm 13.7 - - - 1007.6 - - - - - - - - -
27/04:30pm 14.2 - - - 1007.5 - - - - - - - - -
27/04:00pm 13.9 - - - 1007.3 - - - - - - - - -
27/03:30pm 14.0 - - - 1007.3 - - - - - - - - -
27/03:00pm 13.9 - - - 1007.8 - - - - - - - - -
27/02:30pm 13.7 - - - 1007.8 - - - - - - - - -
27/02:00pm 13.7 - - - 1008.1 - - - - - - - - -
27/01:30pm 13.2 - - - 1008.5 - - - - - - - - -
27/01:00pm 13.0 - - - 1008.9 - - - - - - - - -
27/12:30pm 12.9 - - - 1009.5 - - - - - - - - -
27/12:00pm 12.5 - - - 1009.7 - - - - - - - - -
27/11:30am 12.5 - - - 1010.4 - - - - - - - - -
27/11:00am 12.5 - - - 1010.8 - - - - - - - - -
27/10:30am 12.1 - - - 1011.1 - - - - - - - - -
27/10:00am 12.2 - - - 1011.4 - - - - - - - - -
27/09:30am 12.3 - - - 1011.5 - - - - - - - - -
27/09:00am 11.4 - - - 1011.5 - - - - - - - - -
27/08:30am 10.2 - - - 1011.7 - - - - - - - - -
27/08:00am 9.1 - - - 1011.9 - - - - - - - - -
27/07:30am 9.1 - - - 1011.7 - - - - - - - - -
27/07:00am 8.7 - - - 1011.9 - - - - - - - - -
27/06:30am 8.2 - - - 1011.7 - - - - - - - - -
27/06:00am 8.3 - - - 1011.7 - - - - - - - - -
27/05:30am 9.3 - - - 1011.4 - - - - - - - - -
27/05:00am 9.9 - - - 1011.7 - - - - - - - - -
27/04:30am 9.7 - - - 1011.6 - - - - - - - - -
27/04:00am 10.4 - - - 1011.7 - - - - - - - - -
27/03:30am 9.6 - - - 1012.2 - - - - - - - - -
27/03:00am 9.4 - - - 1011.9 - - - - - - - - -
27/02:30am 9.6 - - - 1011.8 - - - - - - - - -
27/02:00am 10.1 - - - 1011.9 - - - - - - - - -
27/01:30am 10.5 - - - 1012.3 - - - - - - - - -
27/01:00am 11.3 - - - 1012.0 - - - - - - - - -
27/12:30am 11.2 - - - 1012.5 - - - - - - - - -
27/12:00am 11.6 - - - 1012.8 - - - - - - - - -
 
Date/Time
EST
Temp
°C
Wind Pressure Rain since
9am
mm
Weather Cloud Vis
km
Sea
Height
m
Swell
Dir  Spd
kts
Gust
kts
hPa Trend Height
m
Period
s
Dir
26/11:30pm 11.8 - - - 1012.9 - - - - - - - - -
26/11:00pm 11.7 - - - 1012.8 - - - - - - - - -
26/10:30pm 11.8 - - - 1012.8 - - - - - - - - -
26/10:00pm 11.8 - - - 1012.7 - - - - - - - - -
26/09:30pm 12.1 - - - 1012.6 - - - - - - - - -
26/09:00pm 12.2 - - - 1012.9 - - - - - - - - -
26/08:30pm 12.2 - - - 1012.6 - - - - - - - - -
26/08:00pm 12.4 - - - 1012.9 - - - - - - - - -
26/07:30pm 12.3 - - - 1012.7 - - - - - - - - -
26/07:00pm 12.7 - - - 1012.7 - - - - - - - - -
26/06:30pm 12.8 - - - 1012.5 - - - - - - - - -
26/06:00pm 13.3 - - - 1012.4 - - - - - - - - -
26/05:30pm 13.6 - - - 1012.1 - - - - - - - - -
26/05:00pm 14.0 - - - 1011.8 - - - - - - - - -
26/04:30pm 14.2 - - - 1011.5 - - - - - - - - -
26/04:00pm 14.3 - - - 1011.3 - - - - - - - - -
26/03:30pm 14.2 - - - 1011.3 - - - - - - - - -
26/03:00pm 14.2 - - - 1011.3 - - - - - - - - -
26/02:30pm 14.2 - - - 1011.2 - - - - - - - - -
26/02:00pm 13.9 - - - 1011.4 - - - - - - - - -
26/01:30pm 13.8 - - - 1011.6 - - - - - - - - -
26/01:00pm 13.4 - - - 1011.5 - - - - - - - - -
26/12:30pm 13.2 - - - 1012.0 - - - - - - - - -
26/12:00pm 13.0 - - - 1012.3 - - - - - - - - -
26/11:30am 12.5 - - - 1012.7 - - - - - - - - -
26/11:00am 12.2 - - - 1012.8 - - - - - - - - -
26/10:30am 11.7 - - - 1013.1 - - - - - - - - -
26/10:00am 11.0 - - - 1013.4 - - - - - - - - -
26/09:30am 9.9 - - - 1013.6 - - - - - - - - -
26/09:00am 9.2 - - - 1013.9 - - - - - - - - -
26/08:30am 7.6 - - - 1014.0 - - - - - - - - -
26/08:00am 4.9 - - - 1014.2 - - - - - - - - -
26/07:30am 4.0 - - - 1014.2 - - - - - - - - -
26/07:00am 4.1 - - - 1013.9 - - - - - - - - -
26/06:30am 3.9 - - - 1013.9 - - - - - - - - -
26/06:00am 4.3 - - - 1013.6 - - - - - - - - -
26/05:30am 4.0 - - - 1013.5 - - - - - - - - -
26/05:00am 4.0 - - - 1013.2 - - - - - - - - -
26/04:30am 4.8 - - - 1013.3 - - - - - - - - -
26/04:00am 4.9 - - - 1013.1 - - - - - - - - -
26/03:30am 5.4 - - - 1013.1 - - - - - - - - -
26/03:00am 5.5 - - - 1013.1 - - - - - - - - -
26/02:30am 6.2 - - - 1013.3 - - - - - - - - -
26/02:00am 6.8 - - - 1013.5 - - - - - - - - -
26/01:30am 6.8 - - - 1013.8 - - - - - - - - -

Other Formats:

Comma delimited format used in spreadsheet applications
http://www.bom.gov.au/fwo/IDT60701/IDT60701.95987.axf

JavaScript Object Notation format (JSON) in row-major order
http://www.bom.gov.au/fwo/IDT60701/IDT60701.95987.json